Wind_Speed
31 31 31 30 30 30 31 30 29 28 28 28 25 24 25 25 24 23 23 22 21 20 20 19 19 19 18 19 19 20 21 22 21 21 20 19 19 18
29 29 28 28 28 27 27 27 27 25 25 26 24 22 23 23 22 22 22 21 20 20 19 19 18 18 18 18 18 19 20 21 20 19 18 18 17 15
27 27 27 26 26 27 27 26 25 24 23 24 24 22 21 21 21 21 21 20 19 19 18 17 17 17 17 17 17 18 18 18 18 17 17 16 16 15
26 26 26 26 25 25 26 26 25 24 23 23 23 22 21 20 20 20 20 19 19 18 18 17 17 17 17 16 17 17 17 17 17 16 16 16 17 18
29 28 27 27 26 26 25 25 25 25 23 23 24 23 22 21 21 21 20 20 19 19 18 18 17 17 16 17 17 16 16 16 16 17 18 19 20 20
32 32 31 30 30 29 28 28 27 26 26 25 25 24 23 23 22 22 22 22 21 20 19 18 18 17 17 17 17 17 17 18 19 20 21 22 22 22
36 36 35 35 34 33 32 31 31 30 29 28 27 26 25 24 24 24 24 24 22 20 20 19 19 18 18 17 17 18 19 20 22 23 24 25 25 25
38 38 38 38 38 37 36 36 35 34 33 31 30 29 27 27 26 26 26 25 23 22 21 20 20 20 20 19 18 19 20 22 24 26 27 27 27 27
38 39 39 39 39 39 39 38 38 36 36 34 33 31 30 29 29 28 27 26 26 25 24 23 23 22 22 21 20 20 22 23 25 28 30 31 30 29
38 38 39 38 38 38 38 38 38 38 37 36 35 34 33 32 31 30 30 30 29 29 28 26 24 24 24 23 22 22 23 24 26 28 31 33 33 32
36 36 36 36 36 36 37 38 38 38 38 37 36 36 35 34 34 33 33 33 33 32 31 30 28 27 26 26 26 25 24 25 26 28 31 33 34 34
32 33 33 34 33 33 33 34 35 36 37 37 37 37 37 36 35 35 35 35 35 35 34 32 31 31 30 29 28 27 27 28 28 29 30 32 34 34
31 31 30 30 30 30 31 31 32 33 34 35 36 36 37 36 36 37 37 37 38 39 37 36 35 34 33 32 30 30 29 29 29 29 30 30 31 32
31 31 30 30 29 29 29 29 30 30 30 31 33 34 35 36 36 37 38 39 39 40 40 39 38 37 36 34 33 32 31 30 29 29 28 29 30 31
32 32 31 31 31 30 30 29 29 29 29 29 29 31 33 35 37 37 38 38 39 40 40 40 40 39 38 36 35 34 33 32 32 31 30 30 30 30
30 30 30 31 31 31 30 30 29 28 28 27 27 27 28 31 34 36 37 37 39 40 41 41 40 40 40 40 39 37 36 35 33 32 32 31 32 31
27 28 28 29 29 28 29 29 29 29 29 27 27 26 26 26 28 31 33 36 37 38 38 39 40 40 41 40 39 39 38 38 37 35 34 32 32 33
25 25 26 27 28 29 29 30 30 30 30 30 29 28 28 27 26 25 26 29 32 35 37 38 38 39 40 41 40 40 40 39 38 37 36 35 35 35
24 24 24 25 26 28 29 30 30 31 32 32 32 31 30 29 28 26 25 24 25 27 30 33 36 37 38 40 41 41 41 40 40 39 38 37 37 37
24 24 24 24 25 26 27 29 30 31 33 33 34 34 34 33 31 30 28 26 24 23 24 26 28 31 35 37 40 41 42 42 41 40 39 39 38 37
24 24 23 24 24 24 25 26 28 30 32 34 35 36 36 36 36 34 33 31 29 27 26 25 24 25 27 30 33 36 39 41 41 40 40 39 38 38
25 25 24 23 23 23 23 24 25 27 30 32 34 36 37 38 39 39 38 36 35 33 30 28 27 26 25 25 26 28 31 35 37 38 39 39 38 38
28 27 26 25 24 23 23 22 23 24 26 28 31 34 36 37 39 40 41 41 39 38 37 35 32 31 29 28 27 27 28 30 32 34 35 36 36 36
Wind_Direction
284 282 280 277 275 272 270 268 264 262 261 260 259 260 263 266 268 270 273 275 275 272 269 267 266 264 260 257 258 254 253 255 253 258 261 260 258 252
283 280 278 277 275 274 271 268 265 262 259 259 260 259 260 264 266 268 270 272 274 272 270 266 265 264 259 256 256 252 251 248 252 256 256 254 248 237
283 281 279 277 276 274 271 269 267 263 258 259 261 261 261 262 264 266 267 269 272 272 271 269 266 263 259 255 254 250 248 247 248 248 247 242 233 223
284 282 281 280 278 276 273 270 267 263 259 258 259 259 259 260 262 265 266 268 270 273 272 272 269 265 259 255 252 250 246 245 245 240 236 231 224 218
282 280 280 279 277 276 274 271 268 266 264 262 261 260 258 259 261 262 263 268 269 272 273 271 269 265 260 256 254 250 246 242 239 233 230 226 222 219
279 278 277 277 276 274 273 272 270 268 267 264 263 262 259 258 260 261 263 265 268 270 270 271 269 263 259 256 253 249 245 240 236 232 228 225 224 223
278 277 276 276 275 273 273 271 270 268 267 265 264 263 260 257 257 257 259 262 265 266 265 267 265 259 255 254 254 247 245 241 236 232 229 227 227 227
278 277 276 276 274 273 271 270 269 266 265 264 262 261 260 257 255 254 256 259 260 260 262 262 260 255 252 251 253 248 244 243 239 234 231 230 231 231
279 278 277 275 274 272 270 268 267 265 263 262 260 259 258 256 253 252 252 253 252 255 258 259 256 253 250 248 249 251 247 246 243 238 234 233 234 236
281 279 278 276 273 271 268 266 265 262 260 259 257 255 254 253 250 248 248 248 249 252 252 253 253 251 250 247 248 249 250 251 249 244 239 236 236 238
284 283 281 278 275 272 269 266 263 261 258 255 253 251 249 248 246 244 244 245 246 248 248 249 250 250 249 248 250 251 251 251 252 249 244 240 238 239
287 285 283 281 278 275 271 268 265 261 258 255 252 250 248 246 244 242 241 241 242 244 246 247 248 249 251 251 251 252 252 251 253 250 246 243 241 239
288 286 284 282 280 277 274 271 268 264 260 256 253 251 249 247 245 242 241 240 240 242 244 246 247 248 248 249 249 249 250 250 249 248 247 244 242 239
289 286 284 282 280 278 276 274 271 267 264 261 256 252 249 246 245 244 243 241 240 240 241 242 244 245 245 246 247 247 247 246 245 244 244 242 241 241
290 287 284 282 281 279 276 273 272 269 267 264 261 257 253 249 247 246 244 243 242 242 241 241 241 242 243 243 243 244 245 246 246 245 244 243 242 242
292 288 286 283 280 276 274 271 269 267 266 264 262 261 257 253 251 249 246 245 244 244 243 243 242 242 242 242 243 243 243 243 243 244 245 244 242 240
297 292 289 285 279 275 271 268 266 264 263 262 261 259 256 256 256 253 251 248 247 245 245 245 244 243 242 242 241 241 242 241 240 241 241 240 239 238
306 300 294 288 282 277 273 269 266 263 261 259 258 256 254 255 255 256 254 251 249 247 245 244 245 244 243 242 241 240 240 240 240 240 242 241 241 240
314 310 304 298 290 283 277 271 267 263 260 257 255 254 253 252 251 252 253 252 251 250 248 246 245 245 245 244 242 241 241 240 241 241 241 240 241 241
320 317 314 309 301 293 284 277 271 266 261 257 254 252 251 250 249 248 248 249 248 248 248 247 245 244 245 245 245 244 243 241 240 241 241 240 240 240
327 325 322 318 312 304 295 286 279 272 266 261 256 253 251 249 247 246 245 245 245 244 242 243 244 245 244 244 244 245 245 244 242 241 239 239 239 240
333 330 326 323 319 313 305 296 288 281 273 268 262 258 254 250 247 245 245 244 243 243 242 238 238 240 242 242 244 245 244 244 243 242 240 238 238 238
336 335 332 328 323 319 315 307 298 289 281 275 269 264 260 256 252 248 245 244 243 243 240 238 236 236 237 237 239 240 241 244 244 243 241 238 236 236
Height
5792 5791 5790 5789 5789 5788 5788 5788 5789 5789 5789 5789 5790 5791 5791 5790 5790 5789 5789 5788 5788 5788 5788 5787 5787 5787 5787 5787 5787 5787 5788 5788 5789 5789 5790 5791 5791 5791
5784 5784 5783 5782 5781 5781 5780 5780 5780 5781 5781 5781 5782 5784 5784 5783 5783 5783 5782 5782 5782 5781 5781 5781 5781 5781 5781 5781 5781 5782 5782 5783 5784 5785 5785 5787 5788 5788
5777 5776 5775 5775 5774 5774 5773 5773 5773 5773 5774 5774 5775 5776 5777 5776 5776 5776 5776 5776 5775 5775 5774 5774 5774 5775 5775 5776 5776 5776 5777 5778 5779 5780 5781 5783 5785 5786
5771 5770 5769 5768 5767 5767 5766 5766 5766 5767 5767 5768 5768 5769 5770 5770 5770 5769 5769 5769 5769 5769 5768 5768 5769 5769 5770 5770 5771 5772 5772 5773 5775 5776 5778 5780 5782 5784
5764 5763 5762 5761 5760 5760 5760 5759 5759 5759 5760 5761 5761 5762 5763 5763 5763 5763 5763 5763 5763 5763 5763 5763 5763 5763 5764 5765 5766 5767 5768 5769 5771 5772 5774 5777 5779 5781
5756 5755 5754 5753 5752 5752 5752 5752 5752 5752 5752 5753 5754 5755 5756 5756 5756 5756 5756 5757 5757 5757 5757 5757 5757 5757 5758 5760 5761 5762 5763 5764 5766 5768 5771 5773 5775 5777
5746 5745 5744 5743 5743 5743 5743 5743 5744 5744 5744 5745 5746 5747 5747 5748 5749 5749 5750 5750 5750 5751 5751 5751 5752 5752 5753 5754 5755 5757 5758 5760 5762 5764 5766 5768 5770 5772
5736 5734 5733 5733 5732 5732 5732 5733 5734 5734 5735 5736 5737 5738 5739 5740 5741 5742 5742 5743 5743 5744 5745 5745 5746 5747 5748 5749 5750 5751 5752 5754 5756 5758 5761 5763 5765 5767
5724 5723 5722 5721 5720 5720 5720 5721 5722 5723 5724 5725 5727 5728 5729 5731 5732 5733 5734 5735 5736 5737 5737 5738 5740 5741 5742 5743 5744 5745 5746 5748 5750 5752 5754 5757 5759 5761
5713 5711 5710 5709 5708 5708 5708 5708 5709 5711 5712 5714 5715 5717 5718 5720 5722 5724 5726 5727 5728 5729 5730 5731 5733 5734 5735 5736 5737 5738 5740 5741 5743 5745 5747 5749 5752 5754
5702 5700 5698 5697 5696 5696 5696 5696 5697 5698 5699 5701 5703 5704 5706 5709 5711 5713 5715 5717 5719 5720 5721 5723 5725 5726 5727 5729 5730 5732 5733 5734 5736 5737 5739 5741 5744 5746
5692 5690 5688 5686 5685 5684 5684 5684 5684 5685 5686 5688 5690 5692 5694 5696 5699 5702 5704 5707 5709 5711 5712 5714 5716 5718 5719 5721 5722 5724 5725 5726 5728 5729 5731 5733 5735 5738
5682 5680 5678 5677 5675 5674 5673 5673 5673 5673 5674 5675 5677 5679 5682 5684 5687 5689 5693 5695 5698 5700 5703 5705 5707 5708 5710 5712 5714 5715 5717 5718 5719 5720 5722 5724 5727 5729
5673 5671 5669 5667 5666 5665 5664 5663 5663 5663 5664 5664 5666 5668 5670 5672 5675 5677 5680 5683 5686 5689 5691 5694 5696 5698 5701 5703 5705 5706 5708 5709 5711 5712 5714 5716 5718 5721
5663 5661 5659 5658 5656 5655 5654 5654 5653 5654 5654 5655 5655 5657 5658 5660 5663 5665 5668 5671 5674 5677 5679 5682 5684 5687 5690 5693 5695 5697 5699 5700 5702 5704 5705 5707 5709 5712
5653 5651 5649 5648 5646 5645 5644 5644 5644 5644 5644 5645 5646 5647 5648 5649 5651 5653 5656 5659 5662 5665 5667 5670 5672 5675 5678 5681 5684 5686 5689 5691 5693 5695 5697 5699 5701 5703
5644 5642 5640 5638 5636 5635 5634 5634 5634 5634 5635 5636 5637 5638 5639 5639 5640 5642 5644 5646 5649 5652 5655 5658 5661 5663 5666 5669 5672 5675 5678 5680 5683 5685 5688 5690 5692 5694
5637 5634 5631 5628 5627 5625 5624 5623 5623 5624 5624 5625 5627 5628 5629 5630 5631 5633 5634 5636 5638 5640 5643 5646 5649 5652 5655 5658 5661 5663 5666 5669 5672 5675 5678 5680 5682 5685
5630 5626 5623 5620 5617 5615 5614 5613 5613 5613 5614 5614 5616 5617 5619 5621 5622 5624 5625 5627 5629 5630 5632 5634 5637 5640 5643 5646 5649 5652 5655 5658 5661 5664 5667 5670 5673 5676
5624 5620 5616 5613 5609 5607 5604 5603 5602 5602 5602 5603 5604 5606 5608 5610 5612 5615 5617 5619 5620 5622 5623 5624 5626 5629 5632 5635 5637 5640 5642 5646 5649 5653 5656 5659 5662 5666
5619 5614 5610 5606 5602 5599 5596 5594 5592 5591 5591 5592 5593 5594 5596 5598 5601 5604 5606 5609 5611 5613 5615 5617 5618 5620 5622 5624 5627 5629 5631 5634 5638 5641 5645 5648 5652 5655
5614 5610 5605 5601 5597 5593 5589 5586 5584 5582 5581 5580 5581 5582 5584 5586 5589 5592 5595 5598 5600 5603 5606 5608 5610 5612 5614 5616 5618 5620 5622 5624 5627 5630 5634 5638 5641 5644
5609 5604 5600 5596 5591 5587 5583 5580 5577 5574 5572 5571 5570 5571 5572 5574 5576 5579 5582 5585 5588 5592 5595 5598 5600 5603 5606 5608 5610 5612 5614 5616 5618 5621 5624 5627 5631 5634